Time,TemperatureF,DewpointF,PressureIn,WindDirection,WindDirectionDegrees,WindSpeedMPH,WindSpeedGustMPH,Humidity,HourlyPrecipIn,Conditions,Clouds,dailyrainin,SoftwareType,DateUTC
2013-03-06 00:09:00,29.5,29.3,29.97,SE,135,1.1,-999.0,99,-99.99,,,0.00,Acu-Link.com,2013-03-06 05:09:00,
2013-03-06 00:24:00,30.2,30.0,29.97,ESE,112,0.0,-999.0,99,-99.99,,,0.00,Acu-Link.com,2013-03-06 05:24:00,
2013-03-06 00:39:00,30.7,30.5,29.97,East,90,0.0,-999.0,99,-99.99,,,0.00,Acu-Link.com,2013-03-06 05:39:00,
2013-03-06 00:54:00,30.7,30.5,29.97,East,90,0.0,-999.0,99,-99.99,,,0.00,Acu-Link.com,2013-03-06 05:54:00,
2013-03-06 01:12:00,30.7,30.5,29.97,NNE,22,1.1,-999.0,99,-99.99,,,0.00,Acu-Link.com,2013-03-06 06:12:00,
2013-03-06 01:27:00,32.5,32.3,29.97,ESE,112,1.1,-999.0,99,-99.99,,,0.00,Acu-Link.com,2013-03-06 06:27:00,
2013-03-06 01:42:00,32.5,32.3,29.97,ESE,112,0.0,-999.0,99,-99.99,,,0.00,Acu-Link.com,2013-03-06 06:42:00,
2013-03-06 01:57:00,32.5,32.3,29.97,East,90,0.0,-999.0,99,-99.99,,,0.00,Acu-Link.com,2013-03-06 06:57:00,
2013-03-06 02:12:00,32.5,32.3,29.97,ENE,67,0.0,-999.0,99,-99.99,,,0.00,Acu-Link.com,2013-03-06 07:12:00,
2013-03-06 02:27:00,32.7,32.5,29.97,ENE,67,0.0,-999.0,99,-99.99,,,0.00,Acu-Link.com,2013-03-06 07:27:00,
2013-03-06 02:42:00,32.9,32.7,29.97,ESE,112,2.2,-999.0,99,-99.99,,,0.00,Acu-Link.com,2013-03-06 07:42:00,
2013-03-06 02:58:00,33.3,33.0,29.98,West,270,0.0,-999.0,99,-99.99,,,0.00,Acu-Link.com,2013-03-06 07:58:00,
2013-03-06 03:13:00,33.4,33.1,29.97,NNE,22,0.0,-999.0,99,-99.99,,,0.00,Acu-Link.com,2013-03-06 08:13:00,
2013-03-06 03:28:00,34.0,33.7,29.98,ESE,112,3.7,-999.0,99,-99.99,,,0.00,Acu-Link.com,2013-03-06 08:28:00,
2013-03-06 03:43:00,33.8,33.5,29.98,East,90,1.1,-999.0,99,-99.99,,,0.00,Acu-Link.com,2013-03-06 08:43:00,
2013-03-06 03:58:00,34.0,33.7,29.98,East,90,2.2,-999.0,99,-99.99,,,0.00,Acu-Link.com,2013-03-06 08:58:00,
2013-03-06 04:23:00,34.0,33.7,29.98,ESE,112,1.1,-999.0,99,-99.99,,,0.00,Acu-Link.com,2013-03-06 09:23:00,
2013-03-06 04:38:00,34.0,33.7,29.98,NE,45,2.7,-999.0,99,-99.99,,,0.01,Acu-Link.com,2013-03-06 09:38:00,
2013-03-06 04:53:00,34.3,34.0,29.97,NE,45,2.7,-999.0,99,-99.99,,,0.01,Acu-Link.com,2013-03-06 09:53:00,
2013-03-06 05:08:00,34.7,34.4,29.97,NE,45,1.1,-999.0,99,-99.99,,,0.01,Acu-Link.com,2013-03-06 10:08:00,
2013-03-06 05:23:00,34.9,34.6,29.96,ENE,67,2.7,-999.0,99,-99.99,,,0.01,Acu-Link.com,2013-03-06 10:23:00,
2013-03-06 05:39:00,35.8,35.5,29.96,ENE,67,4.7,-999.0,99,-99.99,,,0.01,Acu-Link.com,2013-03-06 10:39:00,
2013-03-06 05:54:00,36.1,35.8,29.96,ESE,112,3.7,-999.0,99,-99.99,,,0.01,Acu-Link.com,2013-03-06 10:54:00,
2013-03-06 06:09:00,36.5,36.2,29.97,ENE,67,3.2,-999.0,99,-99.99,,,0.01,Acu-Link.com,2013-03-06 11:09:00,
2013-03-06 06:24:00,36.7,36.2,29.98,West,270,3.7,-999.0,98,-99.99,,,0.01,Acu-Link.com,2013-03-06 11:24:00,
2013-03-06 06:39:00,36.7,35.9,29.98,East,90,4.7,-999.0,97,-99.99,,,0.01,Acu-Link.com,2013-03-06 11:39:00,
2013-03-06 06:54:00,36.9,36.1,29.98,NNE,22,3.2,-999.0,97,-99.99,,,0.01,Acu-Link.com,2013-03-06 11:54:00,
2013-03-06 07:09:00,36.9,36.1,29.99,NW,315,3.7,-999.0,97,-99.99,,,0.01,Acu-Link.com,2013-03-06 12:09:00,
2013-03-06 07:24:00,36.9,36.1,29.98,East,90,6.3,-999.0,97,-99.99,,,0.01,Acu-Link.com,2013-03-06 12:24:00,
2013-03-06 07:39:00,37.2,36.2,29.98,ESE,112,8.9,-999.0,96,-99.99,,,0.02,Acu-Link.com,2013-03-06 12:39:00,
2013-03-06 07:55:00,37.4,36.1,29.97,ESE,112,7.3,-999.0,95,-99.99,,,0.02,Acu-Link.com,2013-03-06 12:55:00,
2013-03-06 08:10:00,37.2,36.2,29.98,East,90,6.8,-999.0,96,-99.99,,,0.02,Acu-Link.com,2013-03-06 13:10:00,
2013-03-06 08:25:00,37.2,36.2,29.98,West,270,4.7,-999.0,96,-99.99,,,0.02,Acu-Link.com,2013-03-06 13:25:00,
2013-03-06 08:40:00,37.6,36.0,29.98,NNE,22,5.8,-999.0,94,-99.99,,,0.02,Acu-Link.com,2013-03-06 13:40:00,
2013-03-06 08:55:00,37.9,35.0,29.99,East,90,7.8,-999.0,89,-99.99,,,0.02,Acu-Link.com,2013-03-06 13:55:00,
2013-03-06 09:10:00,38.3,34.8,30.00,ENE,67,7.3,-999.0,87,-99.99,,,0.02,Acu-Link.com,2013-03-06 14:10:00,
2013-03-06 09:25:00,38.7,34.3,30.00,WNW,292,7.8,-999.0,84,-99.99,,,0.02,Acu-Link.com,2013-03-06 14:25:00,
2013-03-06 09:40:00,38.5,33.5,29.99,ENE,67,4.7,-999.0,82,-99.99,,,0.02,Acu-Link.com,2013-03-06 14:40:00,
2013-03-06 09:55:00,39.2,33.6,29.99,ESE,112,8.9,-999.0,80,-99.99,,,0.02,Acu-Link.com,2013-03-06 14:55:00,
2013-03-06 10:11:00,39.2,32.9,29.98,ESE,112,10.4,-999.0,78,-99.99,,,0.02,Acu-Link.com,2013-03-06 15:11:00,
2013-03-06 10:26:00,39.2,32.9,29.98,NE,45,6.3,-999.0,78,-99.99,,,0.02,Acu-Link.com,2013-03-06 15:26:00,
2013-03-06 10:41:00,39.4,32.8,29.98,East,90,7.8,-999.0,77,-99.99,,,0.02,Acu-Link.com,2013-03-06 15:41:00,
2013-03-06 10:56:00,40.1,33.2,29.98,ESE,112,10.9,-999.0,76,-99.99,,,0.02,Acu-Link.com,2013-03-06 15:56:00,
2013-03-06 11:11:00,39.2,33.6,29.97,East,90,8.3,-999.0,80,-99.99,,,0.02,Acu-Link.com,2013-03-06 16:11:00,
2013-03-06 11:26:00,38.3,33.9,29.97,ESE,112,10.4,-999.0,84,-99.99,,,0.02,Acu-Link.com,2013-03-06 16:26:00,
2013-03-06 11:41:00,38.3,34.2,29.98,NE,45,20.7,-999.0,85,-99.99,,,0.02,Acu-Link.com,2013-03-06 16:41:00,
2013-03-06 11:57:00,38.3,35.3,29.98,WSW,247,6.8,-999.0,89,-99.99,,,0.03,Acu-Link.com,2013-03-06 16:57:00,
2013-03-06 12:12:00,38.1,35.2,29.98,SE,135,6.8,-999.0,89,-99.99,,,0.03,Acu-Link.com,2013-03-06 17:12:00,
2013-03-06 12:27:00,38.7,35.5,29.98,ESE,112,3.7,-999.0,88,-99.99,,,0.03,Acu-Link.com,2013-03-06 17:27:00,
2013-03-06 12:42:00,39.2,36.0,29.97,East,90,4.7,-999.0,88,-99.99,,,0.03,Acu-Link.com,2013-03-06 17:42:00,
2013-03-06 12:57:00,39.6,35.8,29.95,East,90,12.5,-999.0,86,-99.99,,,0.04,Acu-Link.com,2013-03-06 17:57:00,
2013-03-06 13:13:00,38.8,35.3,29.95,ENE,67,7.3,-999.0,87,-99.99,,,0.04,Acu-Link.com,2013-03-06 18:13:00,
2013-03-06 13:28:00,38.3,35.9,29.95,East,90,5.3,-999.0,91,-99.99,,,0.04,Acu-Link.com,2013-03-06 18:28:00,
2013-03-06 13:43:00,38.5,35.0,29.94,ENE,67,14.5,-999.0,87,-99.99,,,0.04,Acu-Link.com,2013-03-06 18:43:00,
2013-03-06 13:58:00,38.8,35.0,29.94,North,0,11.4,-999.0,86,-99.99,,,0.04,Acu-Link.com,2013-03-06 18:58:00,
2013-03-06 14:13:00,38.7,34.3,29.95,SE,135,5.8,-999.0,84,-99.99,,,0.04,Acu-Link.com,2013-03-06 19:13:00,
2013-03-06 14:28:00,38.7,34.0,29.95,East,90,7.8,-999.0,83,-99.99,,,0.05,Acu-Link.com,2013-03-06 19:28:00,
2013-03-06 14:43:00,38.5,33.8,29.94,ENE,67,8.9,-999.0,83,-99.99,,,0.05,Acu-Link.com,2013-03-06 19:43:00,
2013-03-06 14:58:00,37.8,33.7,29.95,North,0,9.4,-999.0,85,-99.99,,,0.05,Acu-Link.com,2013-03-06 19:58:00,
2013-03-06 15:13:00,37.4,33.9,29.94,ESE,112,8.3,-999.0,87,-99.99,,,0.05,Acu-Link.com,2013-03-06 20:13:00,
2013-03-06 15:29:00,37.6,34.1,29.93,NE,45,5.8,-999.0,87,-99.99,,,0.05,Acu-Link.com,2013-03-06 20:29:00,
2013-03-06 15:44:00,37.6,33.5,29.93,NNE,22,7.8,-999.0,85,-99.99,,,0.05,Acu-Link.com,2013-03-06 20:44:00,
2013-03-06 15:59:00,37.2,33.7,29.94,ENE,67,6.8,-999.0,87,-99.99,,,0.05,Acu-Link.com,2013-03-06 20:59:00,
2013-03-06 16:14:00,36.7,34.0,29.94,East,90,7.8,-999.0,90,-99.99,,,0.05,Acu-Link.com,2013-03-06 21:14:00,
2013-03-06 16:29:00,36.0,34.2,29.95,NE,45,7.8,-999.0,93,-99.99,,,0.05,Acu-Link.com,2013-03-06 21:29:00,
2013-03-06 16:44:00,35.8,34.2,29.94,West,270,6.3,-999.0,94,-99.99,,,0.05,Acu-Link.com,2013-03-06 21:44:00,
2013-03-06 16:59:00,35.4,34.4,29.93,ESE,112,10.9,-999.0,96,-99.99,,,0.05,Acu-Link.com,2013-03-06 21:59:00,
2013-03-06 17:14:00,35.2,34.2,29.91,East,90,4.2,-999.0,96,-99.99,,,0.05,Acu-Link.com,2013-03-06 22:14:00,
2013-03-06 17:29:00,35.4,34.4,29.93,NNE,22,10.4,-999.0,96,-99.99,,,0.06,Acu-Link.com,2013-03-06 22:29:00,
2013-03-06 17:45:00,35.6,34.6,29.94,South,180,11.4,-999.0,96,-99.99,,,0.06,Acu-Link.com,2013-03-06 22:45:00,
2013-03-06 18:00:00,35.6,34.6,29.94,East,90,7.3,-999.0,96,-99.99,,,0.06,Acu-Link.com,2013-03-06 23:00:00,
2013-03-06 18:15:00,35.6,34.6,29.94,NE,45,8.9,-999.0,96,-99.99,,,0.07,Acu-Link.com,2013-03-06 23:15:00,
2013-03-06 18:30:00,35.4,34.4,29.93,ESE,112,6.8,-999.0,96,-99.99,,,0.07,Acu-Link.com,2013-03-06 23:30:00,
2013-03-06 18:45:00,35.6,34.8,29.93,East,90,7.8,-999.0,97,-99.99,,,0.07,Acu-Link.com,2013-03-06 23:45:00,
2013-03-06 19:00:00,35.6,34.6,29.93,East,90,9.4,-999.0,96,-99.99,,,0.07,Acu-Link.com,2013-03-07 00:00:00,
2013-03-06 19:15:00,35.6,34.6,29.93,East,90,7.3,-999.0,96,-99.99,,,0.08,Acu-Link.com,2013-03-07 00:15:00,
2013-03-06 19:30:00,35.6,34.6,29.94,ENE,67,6.8,-999.0,96,-99.99,,,0.08,Acu-Link.com,2013-03-07 00:30:00,
2013-03-06 19:45:00,36.0,34.7,29.93,East,90,9.4,-999.0,95,-99.99,,,0.08,Acu-Link.com,2013-03-07 00:45:00,
2013-03-06 20:01:00,36.0,34.7,29.93,ENE,67,17.1,-999.0,95,-99.99,,,0.08,Acu-Link.com,2013-03-07 01:01:00,
2013-03-06 20:16:00,35.8,34.8,29.92,East,90,18.6,-999.0,96,-99.99,,,0.08,Acu-Link.com,2013-03-07 01:16:00,
2013-03-06 20:31:00,35.8,34.8,29.91,ENE,67,10.9,-999.0,96,-99.99,,,0.08,Acu-Link.com,2013-03-07 01:31:00,
2013-03-06 20:46:00,35.8,34.5,29.91,SE,135,9.4,-999.0,95,-99.99,,,0.08,Acu-Link.com,2013-03-07 01:46:00,
2013-03-06 21:01:00,35.8,34.2,29.90,ESE,112,9.9,-999.0,94,-99.99,,,0.08,Acu-Link.com,2013-03-07 02:01:00,
2013-03-06 21:16:00,35.8,34.2,29.91,East,90,12.5,-999.0,94,-99.99,,,0.08,Acu-Link.com,2013-03-07 02:16:00,
2013-03-06 21:31:00,35.8,34.2,29.91,North,0,6.3,-999.0,94,-99.99,,,0.08,Acu-Link.com,2013-03-07 02:31:00,
2013-03-06 21:46:00,35.6,34.0,29.91,East,90,15.0,-999.0,94,-99.99,,,0.08,Acu-Link.com,2013-03-07 02:46:00,
2013-03-06 22:02:00,35.8,33.7,29.91,ENE,67,10.4,-999.0,92,-99.99,,,0.08,Acu-Link.com,2013-03-07 03:02:00,
2013-03-06 22:17:00,35.8,34.0,29.90,SE,135,8.3,-999.0,93,-99.99,,,0.08,Acu-Link.com,2013-03-07 03:17:00,
2013-03-06 22:32:00,35.6,33.8,29.90,ENE,67,8.3,-999.0,93,-99.99,,,0.08,Acu-Link.com,2013-03-07 03:32:00,
2013-03-06 22:47:00,35.4,33.6,29.91,ENE,67,10.4,-999.0,93,-99.99,,,0.08,Acu-Link.com,2013-03-07 03:47:00,
2013-03-06 23:02:00,35.4,33.8,29.90,East,90,9.9,-999.0,94,-99.99,,,0.08,Acu-Link.com,2013-03-07 04:02:00,
2013-03-06 23:17:00,35.2,33.6,29.90,ESE,112,12.5,-999.0,94,-99.99,,,0.08,Acu-Link.com,2013-03-07 04:17:00,
2013-03-06 23:32:00,35.1,34.1,29.88,ENE,67,8.3,-999.0,96,-99.99,,,0.08,Acu-Link.com,2013-03-07 04:32:00,
2013-03-06 23:47:00,34.9,34.1,29.89,ENE,67,10.4,-999.0,97,-99.99,,,0.09,Acu-Link.com,2013-03-07 04:47:00,